STARLINK-32664 (62204 NORAD) Tracking and Keplerian Element Data

This shows tracking and keplerian element data for the satellite.

Feedback or suggestion? Click here.




ElementValue
Catalog62204
NameSTARLINK-32664
Epoch Orbit946
Epoch Day34.2583186
Epoch Year2025
RAAN7.3393
Inclination43.0026
Eccentricity0.0001288
Argument of Perigee244.5196
Mean Anonmoly115.5524
Mean Motion15.32097681
Decay Rate5.97E-06
L11 62204U 24229N 25034.25831860 .00000597 00000+0 27569-4 0 9993
L22 62204 43.0026 7.3393 0001288 244.5196 115.5524 15.32097681 9460



Live tracking and technical data element details for STARLINK-32664 (NORAD 62204). STARLINK-32664 can be tracked NOW for your location showing map with azimuth and elevation plus other details from your city location.







IsCatalogInMostPopularTable: catalog: 62204, numindb: 13
Update: records affected: 1



GetName: 62204 STARLINK-32664

Hit Count: updated at: Sun, 18 May 2025 22:38:16 GMT